Location: Góry Miechowskie
(50.3599°N, 20.1803°E)
Time: 15:40:05
(UTC+00:00)

Vanguard 1 Rocket - Pass Details

Date: 22 September 2024
Orbit: 650 x 4218 km, 34.3° (Epoch: 07 October)

Event Time Altitude Azimuth Distance (km) Brightness Sun altitude
Rises 07:00:49 0° 275° (W) 6,968 11.4 22.8°
Reaches altitude 10° 07:06:04 10° 265° (W) 6,403 11.3 23.5°
Maximum altitude 07:22:40 28° 218° (SW) 5,879 11.7 25.7°
Drops below altitude 10° 07:41:41 10° 170° (S) 7,244 12.8 28.1°
Sets 07:48:24 0° 160° (SSE) 7,984 13.1 28.9°
